| time (UTC) | temp F | wind direction | speed MPH | gust MPH | rain 1hr in | rain 24hr in | rain mn in | humidity % | barometer mb |
| 20260902130022 | 55 | 65 | 0.0 | 0.0 | 0.00 | 0.00 | 0.00 | 85 | 1007.2 |
| 20260902124520 | 55 | 65 | 0.0 | 0.0 | 0.00 | 0.00 | 0.00 | 85 | 1007.0 |
| 20260902123019 | 56 | 65 | 0.0 | 2.0 | 0.00 | 0.00 | 0.00 | 85 | 1006.8 |
| 20260902121514 | 56 | 65 | 0.0 | 0.0 | 0.00 | 0.00 | 0.00 | 85 | 1006.5 |
| 20260902120112 | 57 | 65 | 0.0 | 0.0 | 0.00 | 0.00 | 0.00 | 85 | 1006.3 |
| 20260902114510 | 57 | 65 | 0.0 | 0.0 | 0.00 | 0.00 | 0.00 | 84 | 1006.2 |
| 20260902113007 | 57 | 65 | 0.0 | 1.0 | 0.00 | 0.00 | 0.00 | 84 | 1006.0 |
| 20260902111505 | 58 | 65 | 0.0 | 1.0 | 0.00 | 0.00 | 0.00 | 83 | 1005.9 |
| 20260902110007 | 58 | 65 | 0.0 | 1.0 | 0.00 | 0.00 | 0.00 | 82 | 1005.7 |
| 20260902104501 | 59 | 65 | 0.0 | 0.0 | 0.00 | 0.00 | 0.00 | 82 | 1005.7 |
| 20260902103111 | 59 | 65 | 0.0 | 0.0 | 0.00 | 0.00 | 0.00 | 82 | 1005.7 |
| 20260902094614 | 60 | 65 | 0.0 | 0.0 | 0.00 | 0.00 | 0.00 | 80 | 1005.7 |
| 20260902093110 | 61 | 65 | 0.0 | 0.0 | 0.00 | 0.00 | 0.00 | 79 | 1005.9 |
| 20260902091553 | 61 | 65 | 0.0 | 0.0 | 0.00 | 0.00 | 0.00 | 80 | 1005.7 |
| 20260902090051 | 62 | 65 | 0.0 | 2.0 | 0.00 | 0.00 | 0.00 | 80 | 1005.7 |
| 20260902084549 | 62 | 65 | 0.0 | 0.0 | 0.00 | 0.00 | 0.00 | 79 | 1005.9 |
| 20260902083045 | 62 | 65 | 0.0 | 0.0 | 0.00 | 0.00 | 0.00 | 77 | 1005.5 |
| 20260902081543 | 63 | 65 | 0.0 | 0.0 | 0.00 | 0.00 | 0.00 | 76 | 1005.3 |
| 20260902080040 | 64 | 65 | 0.0 | 0.0 | 0.00 | 0.00 | 0.00 | 74 | 1005.4 |
| 20260902074540 | 64 | 65 | 0.0 | 2.0 | 0.00 | 0.00 | 0.00 | 73 | 1005.4 |
| 20260902073035 | 65 | 65 | 1.0 | 4.0 | 0.00 | 0.00 | 0.00 | 73 | 1005.4 |
| 20260902071532 | 66 | 65 | 0.0 | 0.0 | 0.00 | 0.00 | 0.00 | 72 | 1005.2 |
| 20260902070029 | 66 | 65 | 0.0 | 1.0 | 0.00 | 0.00 | 0.00 | 71 | 1005.2 |
| 20260902064526 | 67 | 65 | 0.0 | 0.0 | 0.00 | 0.00 | 0.00 | 70 | 1005.0 |
| 20260902063022 | 68 | 65 | 0.0 | 0.0 | 0.00 | 0.00 | 0.00 | 68 | 1004.8 |
| 20260902061522 | 69 | 65 | 0.0 | 0.0 | 0.00 | 0.00 | 0.00 | 67 | 1004.9 |
| 20260902060018 | 69 | 65 | 0.0 | 0.0 | 0.00 | 0.00 | 0.00 | 66 | 1004.9 |
| 20260902054525 | 70 | 65 | 0.0 | 1.0 | 0.00 | 0.00 | 0.00 | 65 | 1004.9 |
| 20260902053018 | 71 | 65 | 0.0 | 1.0 | 0.00 | 0.00 | 0.00 | 64 | 1004.9 |
| 20260902051514 | 71 | 66 | 0.0 | 2.0 | 0.00 | 0.00 | 0.00 | 63 | 1004.9 |
| 20260902050030 | 71 | 67 | 0.0 | 0.0 | 0.00 | 0.00 | 0.00 | 63 | 1004.7 |
| 20260902044515 | 71 | 67 | 0.0 | 0.0 | 0.00 | 0.00 | 0.00 | 62 | 1004.6 |
| 20260902043018 | 72 | 67 | 0.0 | 0.0 | 0.00 | 0.00 | 0.00 | 61 | 1004.8 |
| 20260902041521 | 72 | 67 | 0.0 | 0.0 | 0.00 | 0.00 | 0.00 | 61 | 1005.0 |
| 20260902040019 | 72 | 67 | 0.0 | 1.0 | 0.00 | 0.00 | 0.00 | 61 | 1005.0 |
| 20260902034513 | 72 | 67 | 0.0 | 1.0 | 0.00 | 0.00 | 0.00 | 61 | 1005.1 |
| 20260902033012 | 73 | 67 | 0.0 | 0.0 | 0.00 | 0.00 | 0.00 | 59 | 1005.4 |
| 20260902031511 | 74 | 67 | 0.0 | 0.0 | 0.00 | 0.00 | 0.00 | 59 | 1005.5 |
| 20260902030011 | 74 | 67 | 0.0 | 1.0 | 0.00 | 0.00 | 0.00 | 58 | 1005.5 |
| 20260902024511 | 75 | 67 | 0.0 | 1.0 | 0.00 | 0.00 | 0.00 | 58 | 1005.1 |
| 20260902023010 | 75 | 67 | 0.0 | 1.0 | 0.00 | 0.00 | 0.00 | 57 | 1004.9 |
| 20260902021514 | 75 | 67 | 0.0 | 1.0 | 0.00 | 0.00 | 0.00 | 57 | 1004.6 |
| 20260902020009 | 76 | 67 | 0.0 | 1.0 | 0.00 | 0.00 | 0.00 | 56 | 1004.3 |
| 20260902014508 | 77 | 67 | 0.0 | 1.0 | 0.00 | 0.00 | 0.00 | 54 | 1004.3 |
| 20260902013008 | 78 | 67 | 0.0 | 2.0 | 0.00 | 0.00 | 0.00 | 52 | 1004.2 |
| 20260902011507 | 79 | 67 | 0.0 | 1.0 | 0.00 | 0.00 | 0.00 | 49 | 1004.3 |
| 20260902010013 | 80 | 69 | 0.0 | 2.0 | 0.00 | 0.00 | 0.00 | 45 | 1004.1 |
| 20260902004508 | 82 | 70 | 0.0 | 1.0 | 0.00 | 0.00 | 0.00 | 42 | 1004.2 |
| 20260902003006 | 83 | 71 | 0.0 | 2.0 | 0.00 | 0.00 | 0.00 | 39 | 1004.1 |
| 20260902001505 | 86 | 71 | 0.0 | 2.0 | 0.00 | 0.00 | 0.00 | 36 | 1004.0 |
| 20260902000009 | 89 | 74 | 0.0 | 1.0 | 0.00 | 0.00 | 0.00 | 35 | 1003.9 |
| 20260901234502 | 90 | 75 | 0.0 | 2.0 | 0.00 | 0.00 | 0.00 | 35 | 1004.0 |
| 20260901233002 | 91 | 84 | 0.0 | 2.0 | 0.00 | 0.00 | 0.00 | 33 | 1004.0 |
| 20260901231501 | 92 | 80 | 0.0 | 2.0 | 0.00 | 0.00 | 0.00 | 34 | 1004.0 |
| 20260901230002 | 93 | 63 | 0.0 | 1.0 | 0.00 | 0.00 | 0.00 | 34 | 1004.1 |
| 20260901224600 | 93 | 70 | 0.0 | 2.0 | 0.00 | 0.00 | 0.00 | 33 | 1004.3 |
| 20260901223059 | 93 | 102 | 0.0 | 1.0 | 0.00 | 0.00 | 0.00 | 33 | 1004.3 |
| 20260901221601 | 93 | 104 | 0.0 | 1.0 | 0.00 | 0.00 | 0.00 | 35 | 1004.5 |
| 20260901220054 | 93 | 82 | 0.0 | 2.0 | 0.00 | 0.00 | 0.00 | 34 | 1004.7 |
| 20260901214603 | 93 | 63 | 0.0 | 1.0 | 0.00 | 0.00 | 0.00 | 33 | 1004.8 |
| 20260901213116 | 93 | 65 | 0.0 | 2.0 | 0.00 | 0.00 | 0.00 | 33 | 1004.9 |
| 20260901211545 | 92 | 59 | 0.0 | 2.0 | 0.00 | 0.00 | 0.00 | 34 | 1005.1 |
| 20260901210041 | 92 | 61 | 0.0 | 3.0 | 0.00 | 0.00 | 0.00 | 34 | 1005.4 |
| 20260901204538 | 91 | 81 | 0.0 | 3.0 | 0.00 | 0.00 | 0.00 | 35 | 1005.8 |
| 20260901203044 | 90 | 84 | 0.0 | 1.0 | 0.00 | 0.00 | 0.00 | 35 | 1006.2 |
| 20260901201531 | 89 | 85 | 0.0 | 2.0 | 0.00 | 0.00 | 0.00 | 37 | 1006.3 |
| 20260901200034 | 88 | 86 | 0.0 | 1.0 | 0.00 | 0.00 | 0.00 | 39 | 1006.5 |
| 20260901194523 | 87 | 88 | 0.0 | 2.0 | 0.00 | 0.00 | 0.00 | 45 | 1006.9 |
| 20260901193020 | 85 | 91 | 0.0 | 1.0 | 0.00 | 0.00 | 0.00 | 47 | 1007.0 |
| 20260901191516 | 84 | 98 | 0.0 | 1.0 | 0.00 | 0.00 | 0.00 | 51 | 1007.1 |
| 20260901190012 | 83 | 101 | 0.0 | 1.0 | 0.00 | 0.00 | 0.00 | 54 | 1007.2 |
| 20260901184512 | 83 | 105 | 0.0 | 4.0 | 0.00 | 0.00 | 0.00 | 56 | 1007.5 |
| 20260901183009 | 82 | 40 | 0.0 | 1.0 | 0.00 | 0.00 | 0.00 | 48 | 1007.7 |
| 20260901181507 | 80 | 40 | 0.0 | 5.0 | 0.00 | 0.00 | 0.00 | 46 | 1007.6 |
| 20260901180002 | 79 | 44 | 0.0 | 3.0 | 0.00 | 0.00 | 0.00 | 56 | 1007.8 |
| 20260901174600 | 77 | 35 | 0.0 | 4.0 | 0.00 | 0.00 | 0.00 | 61 | 1008.1 |
| 20260901173053 | 75 | 38 | 1.0 | 6.0 | 0.00 | 0.00 | 0.00 | 64 | 1008.6 |
| 20260901171550 | 73 | 45 | 0.0 | 4.0 | 0.00 | 0.00 | 0.00 | 68 | 1008.7 |
| 20260901170043 | 70 | 46 | 0.0 | 1.0 | 0.00 | 0.00 | 0.00 | 76 | 1008.9 |
| 20260901164547 | 69 | 46 | 0.0 | 1.0 | 0.00 | 0.00 | 0.00 | 75 | 1009.3 |
| 20260901163039 | 68 | 46 | 0.0 | 0.0 | 0.00 | 0.00 | 0.00 | 79 | 1009.3 |
| 20260901161546 | 67 | 46 | 0.0 | 3.0 | 0.00 | 0.00 | 0.00 | 79 | 1009.1 |
| 20260901160038 | 67 | 49 | 0.0 | 3.0 | 0.00 | 0.00 | 0.00 | 81 | 1008.7 |
| 20260901154535 | 67 | 49 | 0.0 | 2.0 | 0.00 | 0.00 | 0.00 | 83 | 1008.7 |
| 20260901153043 | 67 | 49 | 0.0 | 0.0 | 0.00 | 0.00 | 0.00 | 83 | 1008.7 |
| 20260901151534 | 66 | 49 | 0.0 | 2.0 | 0.00 | 0.00 | 0.00 | 83 | 1008.4 |
| 20260901150035 | 66 | 50 | 0.0 | 0.0 | 0.00 | 0.00 | 0.00 | 85 | 1009.0 |
| 20260901144532 | 66 | 49 | 0.0 | 0.0 | 0.00 | 0.00 | 0.00 | 85 | 1008.9 |
| 20260901143031 | 66 | 50 | 0.0 | 2.0 | 0.00 | 0.00 | 0.00 | 84 | 1008.7 |
| 20260901141530 | 65 | 50 | 0.0 | 2.0 | 0.00 | 0.00 | 0.00 | 85 | 1008.9 |
| 20260901140029 | 65 | 50 | 0.0 | 1.0 | 0.00 | 0.00 | 0.00 | 86 | 1008.8 |
| 20260901134529 | 64 | 50 | 0.0 | 0.0 | 0.00 | 0.00 | 0.00 | 88 | 1008.6 |
| 20260901133028 | 64 | 50 | 0.0 | 0.0 | 0.00 | 0.00 | 0.00 | 88 | 1008.4 |
| 20260901131527 | 64 | 50 | 0.0 | 0.0 | 0.00 | 0.00 | 0.00 | 87 | 1008.5 |